Wind_Speed
23 22 23 23 23 23 24 24 24 23 22 22 22 21 21 21 20 19 19 19 19 20 19 19 19 18 17 17 18 18 18 18 19 19 20 21 21 21 21 21 22 22 22
22 22 23 23 23 22 22 23 23 23 23 23 23 23 23 22 21 21 21 20 20 21 20 20 20 19 18 18 19 19 19 19 20 20 21 22 22 23 23 23 24 24 24
22 23 23 23 23 22 21 21 22 22 23 23 24 24 23 23 22 22 22 21 21 21 21 21 21 22 21 20 20 21 21 21 20 20 21 22 22 23 25 25 25 25 26
22 23 23 24 24 23 23 23 23 23 24 24 24 24 24 24 23 23 23 22 22 22 22 22 22 23 23 23 22 22 22 22 22 21 22 22 22 23 24 25 26 27 27
22 23 23 24 24 24 24 24 24 24 24 24 24 24 25 26 25 24 24 24 23 23 23 23 23 23 24 24 23 23 23 23 24 24 24 24 24 24 25 25 26 27 28
23 23 24 24 25 25 24 24 25 25 25 25 26 26 26 26 26 25 25 25 24 24 23 23 23 23 23 24 24 24 24 24 25 25 25 25 25 25 25 26 26 28 29
24 25 25 24 25 26 26 26 26 26 26 27 27 27 27 27 27 25 25 25 25 25 25 24 24 24 24 25 25 24 25 25 26 26 26 26 25 25 25 26 27 28 28
25 26 26 25 26 27 28 28 28 28 28 28 28 27 27 27 27 26 26 26 25 25 25 25 25 25 25 25 25 26 25 26 26 27 27 27 27 27 27 27 27 29 29
26 27 27 27 27 28 29 29 29 29 29 29 29 28 27 27 27 27 27 27 26 26 26 26 25 25 25 25 25 26 27 27 27 28 28 29 29 28 28 28 29 29 30
27 28 28 28 28 28 28 28 28 29 29 29 29 29 29 29 28 27 27 27 27 26 26 26 26 26 26 26 25 26 26 27 28 28 29 29 29 29 29 29 29 29 30
27 27 27 27 27 27 27 27 28 29 29 29 30 30 30 29 29 28 27 27 27 26 26 26 26 25 25 26 26 26 26 26 28 29 29 30 30 30 30 30 30 30 30
26 26 26 26 27 27 27 27 28 28 28 29 29 30 30 29 29 29 28 27 27 27 27 26 26 26 25 25 26 26 26 26 27 28 28 29 30 30 30 30 29 30 31
26 25 25 25 25 25 25 25 26 26 27 28 28 28 28 28 29 29 29 28 28 28 28 27 26 26 26 26 26 26 26 25 25 26 27 27 28 28 28 29 28 29 30
26 25 24 24 24 23 23 24 24 25 25 26 26 27 28 28 28 28 29 29 28 28 28 27 27 26 26 25 25 25 25 24 24 24 24 25 26 26 27 27 28 28 29
25 24 23 22 23 23 22 23 23 23 24 23 23 25 26 26 26 26 26 27 28 27 27 27 26 25 24 23 23 23 23 23 23 23 23 24 24 24 25 25 25 26 27
23 23 22 21 21 21 21 21 21 21 21 21 21 22 22 23 24 24 25 26 27 27 26 25 25 24 23 23 23 24 23 23 22 22 22 22 22 22 22 23 22 23 24
21 20 20 20 19 19 19 19 19 19 19 19 19 19 20 20 21 22 22 22 23 24 24 24 24 24 23 23 23 23 23 23 21 20 19 19 19 19 19 20 21 21 22
20 19 19 18 18 18 18 17 17 17 17 17 18 18 18 18 18 18 19 20 20 20 21 21 21 22 21 21 21 20 20 19 19 17 16 16 17 17 18 18 19 20 20
19 18 17 17 17 17 17 16 16 15 15 15 15 16 16 17 16 16 16 16 17 17 17 18 18 19 19 18 17 16 15 15 16 15 15 15 16 16 17 17 18 18 18
17 16 17 16 15 15 15 14 13 13 13 12 13 13 14 14 14 14 14 14 15 15 15 16 17 17 16 16 15 14 13 13 14 14 15 15 15 15 16 16 17 17 17
15 14 14 13 13 12 12 12 11 11 11 10 10 10 11 11 10 10 11 11 12 12 12 13 13 14 14 14 14 13 12 12 12 14 15 15 15 15 15 16 15 16 16
13 13 12 11 11 10 9 9 9 9 8 8 9 9 9 8 8 8 8 8 9 10 10 10 11 11 11 12 11 11 11 11 11 12 12 13 13 14 14 14 15 15 16
11 10 10 9 8 7 6 6 6 6 5 5 6 6 5 5 5 5 5 6 6 7 9 9 9 9 9 10 10 10 10 10 10 10 11 12 12 12 12 13 13 14 14
10 9 8 6 6 5 4 3 4 4 4 3 4 3 2 2 2 2 3 4 4 5 7 7 7 8 8 8 8 8 8 9 10 10 10 10 11 11 11 12 12 12 13
9 8 7 6 6 5 4 4 4 4 4 4 3 2 1 1 1 1 2 3 4 4 5 5 5 5 6 7 7 7 7 8 8 8 8 8 9 9 10 11 11 11 12
8 7 7 6 6 5 5 4 4 4 4 3 3 2 1 1 1 1 2 3 3 4 4 4 3 3 4 4 5 5 5 6 6 6 6 6 7 8 8 9 9 10 11
Wind_Direction
278 278 275 272 271 268 266 263 263 261 261 261 263 264 264 264 264 267 266 265 266 265 264 263 264 264 261 261 263 263 262 262 261 259 260 259 259 257 256 254 254 255 256
279 276 275 277 273 270 268 265 263 261 262 262 264 265 264 264 264 266 266 263 261 263 265 262 262 262 262 262 263 263 262 263 262 261 261 260 260 259 257 256 256 256 257
281 278 277 276 273 271 270 266 265 264 262 263 264 264 263 263 263 264 264 263 263 263 263 262 261 261 262 263 262 262 262 262 262 261 261 262 261 260 258 257 256 257 258
283 280 279 277 276 274 271 269 269 267 264 263 263 261 261 261 263 264 265 265 265 265 264 264 263 262 262 263 263 262 262 261 260 260 260 261 262 261 259 259 258 257 257
284 282 281 278 275 273 271 270 269 268 265 264 263 263 261 261 262 263 264 265 265 266 266 266 265 263 263 263 262 262 262 262 261 260 261 262 263 262 261 260 260 257 257
284 283 283 280 275 274 273 272 271 269 267 265 263 262 262 262 262 261 263 264 265 265 266 266 265 264 263 262 263 263 263 262 262 261 261 263 263 263 262 260 259 259 259
285 285 284 280 278 276 275 272 271 269 267 266 265 263 263 263 262 262 263 264 264 264 264 264 264 261 261 261 261 262 263 263 264 263 263 263 263 262 263 261 260 261 260
286 286 284 280 280 279 276 274 272 270 269 267 265 263 263 263 262 262 263 264 264 263 262 263 262 261 262 261 259 260 263 265 265 265 264 264 264 263 263 263 262 263 261
286 285 283 281 280 279 277 275 273 271 270 268 264 262 261 261 261 261 262 263 264 263 262 262 262 262 262 261 262 262 263 265 266 265 264 265 264 263 263 263 261 262 262
286 285 283 282 280 279 277 276 273 272 270 268 265 262 260 259 258 260 262 262 263 262 261 261 262 262 262 263 262 262 264 266 267 267 265 264 264 264 263 263 263 263 263
287 285 284 282 281 279 279 278 276 273 270 267 265 262 260 257 257 258 259 260 261 261 261 262 263 262 262 263 263 263 265 267 269 268 266 265 265 264 263 263 263 263 263
289 286 285 284 282 280 280 280 277 273 270 267 265 263 260 258 258 258 259 259 259 260 262 263 264 262 262 263 265 266 267 268 268 268 267 267 267 265 264 264 263 263 262
289 288 287 287 285 283 282 281 279 275 272 268 264 262 260 260 260 259 259 258 259 260 260 261 262 262 262 264 265 266 267 268 268 267 266 267 267 266 265 264 265 264 263
290 290 289 289 287 285 284 283 280 277 274 271 266 263 261 260 259 259 257 257 258 258 258 260 262 262 263 263 263 265 267 267 268 267 266 266 266 265 265 264 264 265 264
289 287 287 287 286 285 284 284 281 279 276 271 268 265 262 261 260 259 257 257 257 256 256 257 258 260 260 259 260 261 264 266 268 269 267 267 266 264 264 263 264 265 264
289 288 287 287 288 287 285 285 283 280 276 271 269 267 265 263 260 259 257 257 257 256 254 252 253 255 256 258 260 263 264 266 266 267 267 264 262 261 262 262 263 267 266
294 291 289 288 287 288 287 285 284 280 278 273 271 269 266 264 263 260 258 258 258 256 251 249 251 252 256 258 261 265 265 264 265 264 262 261 260 262 262 265 266 269 269
298 294 291 289 289 288 288 286 284 280 279 277 274 270 266 265 262 260 258 257 257 255 251 248 249 251 253 255 258 262 263 262 263 262 260 260 259 259 261 266 267 269 270
303 300 296 295 292 288 287 285 283 281 282 281 275 270 266 262 260 261 259 255 253 252 250 248 248 249 251 253 257 260 261 261 260 257 257 260 260 260 262 265 269 272 272
308 305 302 299 295 290 287 286 284 284 283 281 276 271 267 263 261 259 256 254 251 251 251 248 248 247 247 248 252 256 260 261 259 257 258 259 260 263 265 267 269 271 272
310 309 308 304 300 294 290 288 283 284 282 282 280 275 270 264 258 258 255 250 247 247 247 245 244 243 244 246 250 255 259 263 262 259 260 260 262 264 268 269 270 273 275
315 314 311 307 302 297 294 296 289 286 284 280 283 282 273 264 259 260 253 243 240 241 239 239 239 237 239 243 247 252 259 264 264 262 262 264 267 268 268 271 272 274 278
325 326 326 325 319 312 303 297 296 295 288 284 282 277 265 257 255 251 235 226 226 228 225 229 229 228 234 237 240 248 256 261 264 265 264 268 271 270 272 273 275 279 282
333 338 344 344 346 344 335 324 321 318 315 309 302 288 265 240 223 203 203 212 215 215 217 223 224 227 234 234 239 246 256 263 267 268 267 270 272 271 272 278 280 282 285
348 352 358 0 357 353 351 353 359 359 355 346 336 326 302 211 208 189 198 207 203 197 196 203 213 220 225 228 232 240 255 261 265 266 269 271 272 274 278 282 285 288 293
3 5 4 4 3 2 359 358 7 14 13 10 11 20 42 163 162 163 159 163 162 161 168 177 184 193 208 224 236 252 265 265 266 269 269 272 276 281 286 292 296 295 297
Height
5870 5870 5869 5868 5868 5868 5867 5867 5867 5867 5867 5867 5867 5867 5867 5867 5866 5866 5867 5867 5867 5867 5867 5868 5868 5868 5868 5868 5868 5868 5869 5869 5869 5870 5870 5871 5871 5872 5873 5873 5874 5875 5875
5865 5865 5864 5863 5863 5863 5862 5862 5862 5862 5862 5862 5862 5862 5862 5862 5862 5862 5862 5862 5862 5862 5862 5863 5863 5863 5863 5864 5864 5864 5864 5865 5865 5865 5866 5866 5867 5867 5868 5869 5869 5870 5871
5860 5859 5859 5858 5858 5857 5857 5857 5857 5857 5857 5857 5857 5857 5856 5856 5856 5856 5857 5857 5857 5857 5858 5858 5858 5858 5859 5859 5859 5859 5859 5860 5860 5860 5861 5861 5862 5862 5863 5863 5864 5865 5865
5855 5854 5853 5853 5852 5852 5852 5852 5852 5851 5851 5851 5851 5851 5851 5850 5850 5851 5851 5851 5851 5852 5852 5852 5852 5853 5853 5854 5854 5854 5854 5855 5855 5855 5856 5856 5856 5857 5857 5858 5858 5859 5860
5849 5848 5847 5847 5846 5846 5846 5846 5846 5845 5845 5845 5845 5845 5845 5845 5845 5845 5845 5845 5845 5845 5846 5846 5847 5847 5847 5848 5848 5849 5849 5849 5850 5850 5850 5851 5851 5851 5851 5852 5852 5853 5853
5843 5842 5841 5841 5840 5840 5839 5839 5839 5838 5838 5838 5838 5838 5838 5838 5838 5838 5839 5838 5839 5839 5840 5840 5840 5841 5841 5842 5842 5843 5843 5843 5844 5844 5844 5845 5845 5845 5845 5846 5846 5847 5847
5837 5836 5835 5834 5833 5832 5832 5831 5831 5831 5831 5831 5831 5831 5831 5831 5832 5832 5832 5832 5833 5833 5833 5834 5834 5835 5835 5836 5836 5837 5837 5837 5838 5838 5838 5838 5838 5839 5839 5839 5840 5840 5840
5831 5829 5828 5827 5826 5825 5824 5824 5824 5823 5823 5823 5823 5823 5823 5824 5824 5824 5825 5825 5826 5826 5827 5827 5828 5828 5829 5829 5830 5830 5831 5831 5831 5831 5831 5831 5832 5832 5832 5832 5833 5833 5833
5824 5823 5821 5820 5819 5818 5817 5816 5816 5815 5815 5814 5814 5815 5815 5816 5816 5817 5817 5818 5819 5820 5820 5820 5821 5822 5822 5822 5823 5823 5824 5824 5824 5824 5824 5824 5824 5825 5825 5825 5825 5826 5826
5817 5815 5814 5812 5811 5810 5809 5808 5807 5807 5806 5806 5805 5806 5807 5808 5808 5809 5810 5810 5811 5812 5812 5813 5814 5814 5815 5815 5816 5816 5816 5817 5817 5817 5817 5817 5817 5817 5817 5817 5818 5818 5818
5809 5807 5806 5804 5803 5801 5800 5799 5798 5798 5797 5797 5797 5796 5797 5798 5799 5801 5802 5803 5803 5804 5805 5806 5806 5807 5807 5808 5808 5809 5809 5809 5809 5809 5809 5808 5808 5809 5809 5809 5809 5810 5810
5802 5799 5798 5796 5794 5793 5792 5790 5789 5789 5788 5788 5788 5787 5788 5789 5790 5792 5793 5795 5795 5796 5797 5798 5798 5799 5800 5800 5800 5801 5801 5801 5801 5801 5800 5800 5800 5800 5800 5801 5801 5801 5801
5794 5792 5790 5788 5786 5785 5784 5782 5781 5780 5779 5779 5779 5778 5779 5780 5781 5783 5784 5786 5787 5788 5789 5790 5790 5791 5792 5792 5793 5793 5794 5793 5793 5793 5793 5792 5792 5792 5792 5792 5793 5793 5793
5787 5785 5783 5780 5779 5777 5776 5774 5773 5772 5771 5770 5770 5770 5770 5771 5772 5773 5775 5777 5778 5780 5781 5782 5782 5783 5784 5784 5785 5785 5786 5786 5785 5785 5785 5785 5784 5784 5784 5785 5785 5785 5785
5780 5778 5776 5773 5772 5770 5768 5767 5765 5764 5763 5763 5762 5762 5762 5763 5764 5765 5766 5768 5770 5771 5773 5774 5774 5775 5776 5777 5778 5778 5778 5778 5778 5777 5777 5777 5777 5777 5777 5778 5778 5777 5777
5774 5771 5769 5767 5765 5763 5761 5760 5758 5757 5756 5756 5755 5755 5755 5756 5756 5757 5758 5760 5761 5763 5765 5766 5766 5767 5768 5769 5770 5771 5771 5770 5770 5770 5770 5770 5770 5770 5771 5771 5771 5771 5771
5767 5765 5763 5760 5758 5757 5755 5754 5752 5751 5750 5749 5749 5749 5749 5749 5749 5750 5751 5752 5753 5754 5756 5758 5759 5760 5761 5762 5763 5763 5764 5764 5764 5763 5763 5764 5764 5764 5764 5765 5765 5765 5765
5762 5759 5757 5754 5752 5751 5749 5748 5747 5746 5745 5743 5743 5743 5743 5743 5743 5743 5744 5745 5746 5747 5749 5751 5752 5753 5755 5756 5757 5757 5757 5757 5758 5758 5758 5759 5759 5759 5760 5760 5760 5759 5759
5756 5753 5751 5749 5747 5745 5744 5743 5742 5741 5739 5738 5738 5737 5737 5737 5737 5738 5738 5739 5740 5741 5742 5744 5746 5747 5749 5750 5752 5752 5752 5752 5753 5753 5754 5754 5754 5755 5755 5755 5755 5754 5754
5752 5749 5746 5744 5742 5741 5739 5738 5737 5736 5735 5734 5733 5733 5732 5732 5732 5732 5733 5733 5734 5736 5737 5739 5741 5742 5744 5746 5747 5748 5748 5749 5749 5749 5750 5750 5750 5750 5750 5750 5750 5749 5749
5747 5745 5742 5740 5738 5737 5736 5734 5733 5732 5731 5730 5729 5729 5728 5728 5728 5728 5728 5729 5730 5731 5733 5735 5737 5738 5740 5742 5743 5744 5745 5745 5745 5745 5746 5746 5746 5746 5746 5746 5745 5745 5744
5744 5741 5739 5737 5735 5733 5732 5731 5730 5729 5728 5727 5727 5726 5726 5726 5726 5726 5725 5726 5727 5728 5730 5732 5733 5735 5737 5738 5739 5740 5741 5742 5742 5742 5742 5742 5742 5742 5742 5741 5741 5740 5739
5742 5739 5736 5734 5732 5731 5730 5729 5728 5727 5726 5725 5725 5724 5724 5723 5724 5724 5724 5724 5725 5726 5728 5729 5731 5732 5734 5735 5736 5737 5738 5738 5738 5738 5738 5738 5738 5738 5738 5737 5737 5736 5735
5740 5738 5735 5733 5732 5730 5729 5728 5726 5726 5725 5724 5723 5723 5723 5723 5723 5723 5723 5723 5724 5725 5726 5727 5729 5730 5731 5732 5733 5735 5735 5735 5735 5735 5735 5735 5735 5735 5734 5734 5733 5732 5731
5739 5737 5735 5733 5731 5730 5728 5727 5726 5725 5724 5723 5723 5722 5722 5722 5722 5722 5722 5723 5724 5724 5725 5726 5727 5728 5729 5730 5731 5732 5733 5733 5733 5733 5732 5732 5732 5732 5731 5731 5730 5729 5728
5739 5737 5735 5733 5731 5730 5728 5727 5726 5725 5724 5723 5722 5722 5721 5721 5722 5722 5722 5723 5724 5724 5725 5726 5727 5727 5728 5729 5730 5730 5731 5731 5731 5730 5730 5730 5730 5729 5729 5728 5727 5726 5724